Location: Chircca
(13.7944°S, 72.0608°W)
Time: 06:30:37
(UTC+00:00)

PSLV R/B - Pass Details

Date: 14 July 2020
Orbit: 283 x 20645 km, 17.9° (Epoch: 14 August)

Event Time Altitude Azimuth Distance (km) Brightness Sun altitude
Exits shadow 09:45:30 53° 61° (ENE) 432 3.1 -20.8°
Drops below altitude 10° 09:48:23 10° 75° (ENE) 1,864 7.2 -20.1°
Sets 09:52:11 0° 76° (ENE) 3,827 9.3 -19.2°
